User: anonymous   Login
Location: Columbia
(38.9520°N, 92.3340°W)
Time: 08:13:49
(UTC-05:00)
Language:

CZ-2C R/B - Orbit

View from above orbital plane
View from above orbital plane
View from above satellite
View from above satellite

Ground track
Ground track

The orbit data is extracted from the following two-line orbital elements,

1 28480U 04046B   17086.90860418 +.00000012 +00000-0 +19380-4 0  9992
2 28480 098.1919 188.3525 0143261 104.3703 008.5645 14.25630979642633
Epoch (UTC): 27 March 2017 21:48:23
Eccentricity: 0.0143261
inclination: 98.1919°
perigee height: 703 km
apogee height: 909 km
right ascension of ascending node: 188.3525°
argument of perigee: 104.3703°
revolutions per day: 14.25630979
mean anomaly at epoch: 8.5645°
orbit number at epoch: 64263

The dashed part of the orbit path shows where the satellite is in the earth's shadow,  

DLR